Regional Weather Roundup
Issued by NWS Cleveland, OH

Home | Current Version | Previous Version | Graphics & Text | Print | Product List | Glossary On
Versions: 1 2 3 4 5 6 7 8 9 10 11 12 13 14 15 16 17 18 19 20 21 22 23 24 25 26 27 28 29 30 31 32 33 34 35 36 37 38 39 40 41 42 43 44 45 46 47 48 49 50
000
ASUS41 KCLE 182010
RWRCLE
OHIO REGIONAL WEATHER ROUNDUP
NATIONAL WEATHER SERVICE CLEVELAND, OH
300 PM EST SAT NOV 18 2017

NOTE: "FAIR" INDICATES FEW OR NO CLOUDS BELOW 12,000 FEET WITH NO
SIGNIFICANT WEATHER AND/OR OBSTRUCTIONS TO VISIBILITY.

OHZ001>008-015>018-024>027-034-035-043-044-182100-
   NORTHWEST OHIO

CITY           SKY/WX    TMP DP  RH WIND       PRES   REMARKS
DEFIANCE       CLOUDY    50  48  93 N13       29.21R
FINDLAY        TSTM      53  49  86 E8        29.19F FOG
TOLEDO EXPRESS CLOUDY    52  52 100 N5        29.20S FOG
TOLEDO EXEC    LGT RAIN  52  51  97 SE12G22   29.18F FOG
LIMA           RAIN      54  53  97 SE5       29.20F FOG
$$

OHZ009>014-019>023-028>033-038-089-182100-
   NORTHEAST OHIO

CITY           SKY/WX    TMP DP  RH WIND       PRES   REMARKS
CLE-HOPKINS    RAIN      51  50  96 SE9       29.29F FOG
CLE-LAKEFRONT  RAIN      50  47  89 SE16      29.26F FOG
CUY CO. ARPT   LGT RAIN  52  50  93 S16G22    29.31F FOG
LORAIN-ELYRIA  RAIN      50  45  83 S15       29.25F
ASHTABULA      LGT RAIN  47  46  97 S10       29.31F FOG
AKRON-CANTON   CLOUDY    50  45  83 SE13      29.31F
WOOSTER        CLOUDY    48  46  93 SE10      29.29F
MANSFIELD      CLOUDY    49  48  97 SE15      29.26F
YOUNGSTOWN     LGT RAIN  48  47  96 S12       29.33F FOG
$$

OHZ042-051>053-060>062-070>072-077>081-182100-
  SOUTHWEST OHIO

CITY           SKY/WX    TMP DP  RH WIND       PRES   REMARKS
CINC-COVINGTON CLOUDY    65  58  78 SW20G40   29.30R
CINC-LUNKEN    CLOUDY    66  58  75 S28G37    29.30R
HAMILTON       CLOUDY    66  58  75 SW21G32   29.29F
DAYTON         LGT RAIN  62  59  90 SW23G31   29.26F
WRIGHT-PAT AFB CLOUDY    64  58  80 SW29G44   29.26F
DAYTON GENERAL CLOUDY    64  56  75 SW20G37   29.28S
WILMINGTON     CLOUDY    63  57  81 SW25G41   29.29R
$$

OHZ036-037-039>041-045>050-054>059-063>069-073>076-082>088-182100-
  CENTRAL AND SOUTHEAST OHIO

CITY           SKY/WX    TMP DP  RH WIND       PRES   REMARKS
COLUMBUS       CLOUDY    63  55  75 S21G30    29.28F
OSU AIRPORT    CLOUDY    61  55  81 S14G22    29.27F
BOLTON FIELD   CLOUDY    61  54  77 S14G21    29.29F
RICKENBACK AFB CLOUDY    62  55  77 SW16G30   29.29F
NEWARK         CLOUDY    61  51  70 S9        29.28F
MARION         CLOUDY    54  50  86 S17       29.23F
LANCASTER      CLOUDY    64  55  72 S20       29.31F
ZANESVILLE     CLOUDY    62  50  64 S20G28    29.32F
NEW PHILLY     NOT AVBL
$$



USA.gov is the U.S. government's official web portal to all federal, state and local government web resources and services.